Regional Weather Roundup
Issued by NWS

Home | Current Version | Previous Version | Graphics & Text | Print | Product List | Glossary On
Versions: 1 2 3 4 5 6 7 8 9 10 11 12 13 14 15 16 17 18 19 20 21 22 23 24 25 26 27 28 29 30 31 32 33 34 35 36 37 38 39 40 41 42 43 44 45 46 47 48 49 50
000
ASUS45 KCYS 021710
RWRWY

WYOMING REGIONAL WEATHER ROUNDUP
NATIONAL WEATHER SERVICE CHEYENNE WY
1100 AM MDT SUN AUG 02 2015

NOTE:  "FAIR" INDICATES FEW OR NO CLOUDS BELOW 12,000 FEET
WITH NO SIGNIFICANT WEATHER AND/OR OBSTRUCTIONS TO VISIBILITY.

WYZ001-021800-
YELLOWSTONE NATIONAL PARK

CITY           SKY/WX    TMP DP  RH WIND       PRES   REMARKS
LK YELLOWSTONE   N/A     62  44  51 E5        30.36S
W YELLOWSTONE  NOT AVBL

$$
WYZ002>013-054>058-071-098>099-021800-
NORTHERN WYOMING

CITY           SKY/WX    TMP DP  RH WIND       PRES   REMARKS
JACKSON        SUNNY     66  37  34 CALM      30.26F
CODY           FAIR      81  43  26 NE9       30.12S
GREYBULL       FAIR      82  29  14 VRB5      30.03S
WORLAND        FAIR      83  31  15 NE5       30.04F
SHERIDAN       FAIR      87  41  19 N9        30.03R
BUFFALO        FAIR      87  36  16 N10       30.09R
GILLETTE       FAIR      89  38  16 NE8       30.03S
HULETT         FAIR      77  52  41 E12       30.06R
NEWCASTLE      FAIR      84  48  28 S3        30.03S

$$
WYZ014>020-022>026-101>103-021800-
CENTRAL WYOMING

CITY           SKY/WX    TMP DP  RH WIND       PRES   REMARKS
BIG PINEY      FAIR      78  32  18 S3        30.27S
PINEDALE       FAIR      79  28  15 NW3       30.27S
DUBOIS         FAIR      77  27  15 E3        30.27F
LANDER         FAIR      83  30  14 N3        30.14S
RIVERTON       FAIR      80  41  24 E7        30.15S
CASPER         FAIR      85  32  15 SW10      30.11F
DOUGLAS        FAIR      87  38  17 N9        30.08F

$$
WYZ021-027>030-104>119-021800-
SOUTHERN WYOMING

CITY           SKY/WX    TMP DP  RH WIND       PRES   REMARKS
EVANSTON       FAIR      78  31  17 CALM      30.25S
KEMMERER       FAIR      81  27  13 NE7       30.26S
FORT BRIDGER   SUNNY     77  27  15 NE5       30.27F
ROCK SPRINGS   FAIR      75  34  22 NE5       30.23S
DIXON          FAIR      81  41  24 W7        30.23F
RAWLINS        FAIR      79  39  23 VRB3      30.23F
SARATOGA       FAIR      77  37  24 CALM      30.26S
LARAMIE        FAIR      78  42  27 N7        30.25S
CHEYENNE       FAIR      86  48  26 NE13      30.15S
TORRINGTON     FAIR      82  59  45 N5        30.02S
PINE BLUFFS    FAIR      84  50  30 E5        30.10S

$$


USA.gov is the U.S. government's official web portal to all federal, state and local government web resources and services.